STARLINK-33837, 63501

Orbit data source: Space-Track

STARLINK-33837, 63501 is a payload satellite owned by SpaceX/Seattle (US) in LEO that was launched on Mon, 07 Apr 2025 UTC via an FALCON 9 launch vehicle from the Air Force Western Test Range (AFWTR). Payload-class satellites include a variety of spacecraft equipped with specific instruments for various scientific and technological missions. These include communications satellites like Starlink; space stations such as the ISS; scientific satellites like the Hubble; Earth observation satellites from companies like Planet Labs, Umbra, and HawkEye 360; GPS; miniature CubeSats for education and research; and military/defense satellites.

Loading next visibility...
Identifier
63501, 2025-071J
Orbit
LEO
Last TLE update
10 hours ago
Origin
Manufacturer
SpaceX/Seattle
Mission
Operational Commercial Communications
Bus & Motor
STARLINK V2MO, Unknown motor
Mass
575 kg wet, ~530 kg dry
Launch date (UTC)
2025-04-07 (3 months ago)
Launch vehicle
FALCON 9
Launch site
Air Force Western Test Range (AFWTR)
Object type
Payload
Rocket body
Debris
Shape & HBR
Box + 1 Pan, 29 m
Radar Cross Section
41.120 m², Large (>1 m²)

Expand to show TLE details & history

TLE from 10 hours ago
0 STARLINK-33837
1 63501U 25071J   25182.52371980  .00026617  00000-0  67309-3 0  9993
2 63501  53.1577 227.3934 0001092  67.9788 292.1333 15.39619306 14249
Epoch: 2025-07-01T12:34Z
TLE epoch observation values (Epoch: 2025-07-01T12:34:09.39Z)
Latitude
-0.00002°
Longitude
119.03632°
Altitude
447.857 km
Speed
7.645 km/s
True Right ascension
15h 09m 34s
True Declination
0° 00' 00"
Sunlit
Object was in full shadow at epoch
Visualization orbit readout
Latitude
36.27701°
Longitude
150.31222°
Altitude
449.306 km
Speed
7.648 km/s
Apparent Right ascension
19h 22m 03s
Apparent Declination
0° 20' 43"
Sunlit
Object is in full shadow
Visualization observer readout
Local Sidereal Time
09:47:41
Azimuth
49.227° ENE
Elevation
-38.4°
Doppler factor
1
Orbital elements
Apogee altitude
448.237 km
Perigee altitude
446.747 km
Semi-major axis
6,825.629 km
Eccentricity
0.00011
Inclination
53.1577°
RAAN
227.3934°
Arg. of periapsis
67.9788°
True anomaly
Unknown
Mean anomaly
292.1333°
Eccentric anomaly
Unknown
Mean motion
3.84883 °/min
Orbital period
93.53 mins
BSTAR
0.00067309
Loading maneuver chart data...
Loading SW <> Apogee altitude chart data...
Loading historical data...
Loading historical data...
Loading historical data...
Loading historical data...
Loading historical data...
Loading historical data...
Loading historical data...

STARLINK-33837 Visibility forecast

Observer location: undefined°, undefined°

Span
Click to sort rows by Start time (UTC) header in descending order
Start Az.
Max El. time (UTC)
Max El. Az.
Max El.
End time (UTC)
End Az.
5 mins2025-07-02 05:54:19.165Z236.6° WSW2025-07-02 05:56:19.165Z288.886° WNW43.956°2025-07-02 05:59:19.165Z46.548° ENE
5 mins2025-07-02 12:27:19.165Z314.113° NW2025-07-02 12:29:19.165Z106.333° ESE43.45°2025-07-02 12:32:19.165Z128.012° SE
|